Hourly Weather Roundup
Issued by NWS Central Illinois

Home | Current Version | Previous Version | Text Only | Print | Product List | Glossary On
Versions: 1 2 3 4 5 6 7 8 9 10 11 12 13 14 15 16 17 18 19 20 21 22 23 24 25 26 27 28 29 30 31 32 33 34 35 36 37 38 39 40 41 42 43 44 45 46 47 48 49 50
000
NZUS43 KILX 110510
HWRILX

AREA WEATHER ROUNDUP
NATIONAL WEATHER SERVICE, LINCOLN IL
1100 PM CST WED FEB 10 2016


CITY           SKY/WX    TMP DP  RH WIND       PRES   REMARKS
BLOOMINGTON    CLOUDY    15   6  67 NW6       30.17R WCI   6
CHAMPAIGN      CLEAR     13   7  77 W6        30.16S WCI   4
DANVILLE       CLOUDY    12   6  75 W3        30.13S
DECATUR        CLOUDY    20  13  74 N9        30.16S WCI   9
EFFINGHAM      CLOUDY    21  18  86 SW3       30.19S
FLORA          FLURRIES  22  18  85 CALM      30.19S
GALESBURG      CLOUDY    14   8  75 N5        30.19R WCI   7
JACKSONVILLE   CLOUDY    22  17  83 CALM      30.17S
LACON          CLOUDY    13   5  69 CALM      30.19R
LAWRENCEVILLE  CLOUDY    20  15  81 NW3       30.20S
LITCHFIELD     CLOUDY    19  16  85 N3        30.17R
$$


CITY           SKY/WX    TMP DP  RH WIND       PRES   REMARKS
LINCOLN        CLOUDY    18  12  76 CALM      30.18S
MACOMB         CLOUDY    19  15  83 N6        30.20S WCI  11
MATTOON        CLOUDY    18  13  80 NW7       30.16R WCI   9
MT CARMEL AP   CLOUDY    23  18  80 NW5       30.19S WCI  17
OLNEY-NOBLE AP CLOUDY    21  18  86 W3        30.20R
PARIS          MOCLDY    14  10  82 W3        30.18R
PEORIA         CLEAR     15   7  70 CALM      30.19R
PONTIAC        CLOUDY    15   8  75 N6        30.18S WCI   6
RANTOUL        MOCLDY    17   8  69 NW5       30.16S WCI  10
ROBINSON       CLOUDY    17  13  86 CALM      30.20S
SPRINGFIELD    CLOUDY    21  15  78 N6        30.18S WCI  13
TAYLORVILLE    CLOUDY    21  18  86 NW3       30.18R
$$

...REGIONAL REPORTS...


CITY           SKY/WX    TMP DP  RH WIND       PRES   REMARKS
CHICAGO O`HARE PTCLDY    10   1  67 NW7       30.17R WCI  -1
KANKAKEE       CLOUDY    15   4  61 N9        30.17S WCI   3
MOLINE         CLOUDY    14   2  58 N7        30.20R WCI   4
MOUNT STERLING CLOUDY    18  14  86 N6        30.16S WCI  10
MOUNT VERNON   CLOUDY    21  16  79 CALM      30.18S
PITTSFIELD     CLOUDY    20  18  91 NE5       30.17S WCI  14
QUINCY         CLOUDY    20  15  81 NE7       30.16S WCI  11
ROCKFORD       CLOUDY    11   1  64 N6        30.20S WCI   1
$$


CITY           SKY/WX    TMP DP  RH WIND       PRES   REMARKS
BURLINGTON     CLOUDY    19  12  74 N7        30.17S WCI  10
CEDAR RAPIDS   CLOUDY    12   2  64 N10       30.19R WCI  -1
DES MOINES     CLOUDY    17   9  70 NE9       30.18S WCI   6
KIRKSVILLE     CLOUDY    20  16  84 NE7       30.15R WCI  11
OTTUMWA        CLOUDY    18  12  77 N7        30.18R WCI   9
ST LOUIS       CLOUDY    24  19  81 E6        30.16S WCI  17
$$


CITY           SKY/WX    TMP DP  RH WIND       PRES   REMARKS
TERRE HAUTE    CLEAR     15   7  70 NW3       30.18R
EVANSVILLE     CLOUDY    24  16  71 CALM      30.21R
INDIANAPOLIS   MOCLDY    13   5  70 W5        30.14R WCI   5
LAFAYETTE      CLEAR      8   4  83 CALM      30.16R
MADISON        CLOUDY     7  -3  64 NW5       30.17R WCI  -2
MILWAUKEE      MOCLDY     9  -2  61 W9        30.16R WCI  -4
$$





USA.gov is the U.S. government's official web portal to all federal, state and local government web resources and services.